Fairbanks, AK

1:35 PM AKDT on August 21, 2019 (GMT -0800)
Fairbanks International

Weather History for PAFA - January, 1975

Change the Weather History Date:

Tuesday, January 21, 1975

  Actual Average Record
Temperature  
Mean Temperature -4 °F -8 °F  
Max Temperature 1 °F 1 °F 47 °F (1961)
Min Temperature -9 °F -17 °F -61 °F (1906)
Degree Days  
Heating Degree Days 69 73  
Month to date heating degree days 1537  
Since 1 July heating degree days 7809  
Cooling Degree Days 0 0  
Month to date cooling degree days 0  
Year to date cooling degree days 0  
Moisture  
Dew Point -14 °F    
Average Humidity 62    
Maximum Humidity 68    
Minimum Humidity 59    
Precipitation  
Precipitation 0.00 in 0.02 in 0.53 in (1929)
Month to date precipitation 0.41  
Year to date precipitation 0.41  
Snow  
Snow 0.00 in 0.30 in 8.20 in (1933)
Month to date snowfall 7.3  
Since 1 July snowfall 45.2  
Snow Depth -    
Sea Level Pressure  
Sea Level Pressure 29.55 in    
Wind  
Wind Speed 2 mph (NNE)    
Max Wind Speed 5 mph    
Max Gust Speed -    
Visibility 16 miles    
Events      
T = Trace of Precipitation, MM = Missing Value Source: NWS Daily Summary

Daily Weather History Graph

Daily Weather History Graph

Search for Another Location

Airport or City:

Astronomy

Jan. 21, 1975 Rise Set
Actual Time 9:11 AM AHST 2:54 PM AHST
Civil Twilight 8:05 AM AHST 4:01 PM AHST
Nautical Twilight 7:00 AM AHST 5:05 PM AHST
Astronomical Twilight 6:02 AM AHST 6:04 PM AHST
Moon 9:39 AM AHST 3:11 AM AHST
Length of Visible Light 7h 56m
Length of Day
5h 43m
Waxing Gibbous, 63% of the Moon is Illuminated
Jan 21
Waxing Gibbous
Jan 27
Full
Feb 2
Last Quarter
Feb 10
New
Feb 18
First Quarter

Hourly Weather History & Observations

Time (AHST) Temp. Windchill Dew Point Humidity Pressure Visibility Wind Dir Wind Speed Gust Speed Precip Events Conditions
12:00 AM -0.9 °F -8.9 °F -11.9 °F 60% 29.70 in 15.0 mi NNE 3.5 mph - N/A   Clear
1:00 AM - - - N/A% 29.68 in 15.0 mi Calm Calm - N/A   Clear
2:00 AM -2.9 °F -13.3 °F -13.0 °F 62% 29.65 in 15.0 mi North 4.6 mph - N/A   Partly Cloudy
3:00 AM - - - N/A% 29.63 in 15.0 mi North - - N/A   Scattered Clouds
4:00 AM -5.1 °F -13.6 °F -16.1 °F 59% 29.61 in 15.0 mi NNE 3.5 mph - N/A   Partly Cloudy
5:00 AM -8.0 °F -19.2 °F -17.0 °F 65% 29.59 in 15.0 mi NE 4.6 mph - N/A   Partly Cloudy
6:00 AM -9.0 °F -18.2 °F -20.0 °F 59% 29.57 in 15.0 mi South 3.5 mph - N/A   Partly Cloudy
7:00 AM -8.0 °F - -18.0 °F 61% 29.56 in 15.0 mi Calm Calm - N/A   Partly Cloudy
8:00 AM -8.0 °F -19.2 °F -18.9 °F 59% 29.55 in 20.0 mi NNE 4.6 mph - N/A   Partly Cloudy
9:00 AM - - - N/A% 29.55 in 20.0 mi Calm Calm - N/A   Scattered Clouds
10:00 AM -8.0 °F -16.9 °F -18.9 °F 59% 29.54 in 30.0 mi NNE 3.5 mph - N/A   Mostly Cloudy
11:00 AM - - - N/A% 29.53 in 60.0 mi Calm Calm - N/A   Mostly Cloudy
12:00 PM -4.0 °F - -14.1 °F 62% 29.52 in 60.0 mi Calm Calm - N/A   Mostly Cloudy
1:00 PM -2.0 °F - -11.0 °F 66% 29.51 in 60.0 mi Calm Calm - N/A   Mostly Cloudy
2:00 PM -2.9 °F -11.2 °F -11.0 °F 68% 29.51 in 60.0 mi WSW 3.5 mph - N/A   Mostly Cloudy
3:00 PM -0.9 °F -8.9 °F -9.9 °F 66% 29.50 in 60.0 mi WSW 3.5 mph - N/A   Mostly Cloudy
4:00 PM -2.0 °F -12.2 °F -13.0 °F 60% 29.50 in 60.0 mi NNE 4.6 mph - N/A   Partly Cloudy
5:00 PM - - - N/A% 29.50 in 15.0 mi Calm Calm - N/A   Scattered Clouds
6:00 PM -4.0 °F - -15.0 °F 59% 29.50 in 15.0 mi Calm Calm - N/A   Scattered Clouds
7:00 PM -0.0 °F - -9.0 °F 66% 29.51 in 15.0 mi Calm Calm - N/A   Mostly Cloudy
8:00 PM 1.9 °F - -7.1 °F 66% 29.52 in 15.0 mi Calm Calm - N/A   Mostly Cloudy
9:00 PM -0.9 °F - -11.9 °F 60% 29.52 in 15.0 mi Calm Calm - N/A   Scattered Clouds
10:00 PM -0.9 °F -8.9 °F -11.9 °F 60% 29.52 in 15.0 mi NE 3.5 mph - N/A   Partly Cloudy
11:00 PM -0.9 °F - -11.9 °F 60% 29.54 in 15.0 mi Calm Calm - N/A   Partly Cloudy